This is the latest recevied weather packets stored in our database for station/object p43g-13. If no packets are shown the sender has not sent any weather packets the latest 10 day(s).
| Time | Temp. | Humidity | Pressure | Rain* | Wind** | Luminosity | Snow |
|---|---|---|---|---|---|---|---|
| 1787932509 | 31.67° C | 72% | 1012.1 hPa | 0 mm | - | 1150 W/m² | - |
| 1787932209 | 31.67° C | 73% | 1012.6 hPa | 0 mm | - | 1159 W/m² | - |
| 1787931909 | 31.67° C | 72% | 1012.5 hPa | 0 mm | - | 461 W/m² | - |
| 1787931609 | 31.67° C | 72% | 1012.5 hPa | 0 mm | - | 955 W/m² | - |
| 1787931309 | 31.67° C | 72% | 1012.4 hPa | 0 mm | - | 314 W/m² | - |
| 1787931008 | 31.67° C | 71% | 1012.6 hPa | 0 mm | - | 1013 W/m² | - |
| 1787930708 | 31.67° C | 71% | 1012.3 hPa | 0 mm | - | 461 W/m² | - |
| 1787930407 | 31.67° C | 71% | 1012.9 hPa | 0 mm | - | 1131 W/m² | - |
| 1787930108 | 31.11° C | 72% | 1012.6 hPa | 0 mm | - | 323 W/m² | - |
| 1787929808 | 31.67° C | 72% | 1012.5 hPa | 0 mm | - | 903 W/m² | - |
| 1787929507 | 31.67° C | 70% | 1012.7 hPa | 0 mm | - | 384 W/m² | - |
| 1787929208 | 31.67° C | 73% | 1012.5 hPa | 0 mm | - | 485 W/m² | - |
| 1787928908 | 31.67° C | 74% | 1012.6 hPa | 0 mm | - | 978 W/m² | - |
| 1787928607 | 31.67° C | 73% | 1012.5 hPa | 0 mm | - | 1016 W/m² | - |
| 1787928307 | 31.67° C | 73% | 1012.5 hPa | 0 mm | - | 460 W/m² | - |
| 1787928008 | 32.22° C | 72% | 1012.6 hPa | 0 mm | - | 901 W/m² | - |
| 1787927708 | 31.11° C | 74% | 1012.4 hPa | 0 mm | - | 859 W/m² | - |
| 1787927408 | 31.11° C | 74% | 1012.7 hPa | 0 mm | - | 875 W/m² | - |
| 1787927108 | 31.11° C | 74% | 1012.7 hPa | 0 mm | - | 293 W/m² | - |
| 1787926808 | 31.11° C | 75% | 1012.8 hPa | 0 mm | - | 544 W/m² | - |
| 1787926508 | 30.56° C | 75% | 1012.6 hPa | 0 mm | - | 920 W/m² | - |
| 1787926208 | 30.56° C | 77% | 1012.9 hPa | 0 mm | - | 457 W/m² | - |
| 1787925908 | 30.56° C | 76% | 1012.7 hPa | 0 mm | - | 584 W/m² | - |
| 1787925608 | 30.56° C | 77% | 1012.5 hPa | 0 mm | - | 348 W/m² | - |
| 1787925308 | 30.56° C | 77% | 1012.5 hPa | 0 mm | - | 766 W/m² | - |
* Rain latest hour (hover to see other rain measurements)
** Current wind speed in m/s (hover to see current wind gust speed)